Location: Santa Clara
(37.3540°N, 121.9540°W)
Time: 01:10:59
(UTC-07:00)

X-37B - Pass Details

Date: 26 January 2022
Orbit: 329 x 342 km, 45.0° (Epoch: 18 May)

Event Time Altitude Azimuth Distance (km) Brightness Sun altitude
Rises 18:22:01 0° 231° (SW) 2,107 5.6 -11.4°
Reaches altitude 10° 18:24:02 10° 226° (SW) 1,270 4.2 -11.8°
Maximum altitude 18:26:49 54° 148° (SSE) 415 0.6 -12.3°
Enters shadow 18:28:11 25° 80° (E) 718 1.3 -12.6°
